Location: Daytona Beach
(29.2106°N, 81.0231°W)
Time: 23:16:10
(UTC-04:00)

Envisat - Visible Passes

Search period start: 24 June 2021 00:00
Search period end: 04 July 2021 00:00
Orbit: 764 x 766 km, 98.1° (Epoch: 24 June)

Date Brightness Start Highest point End Pass type
(mag) Time Alt. Az. Time Alt. Az. Time Alt. Az.
25 Jun 5.8 05:29:30 10° ENE 05:31:52 13° E 05:34:13 10° ESE visible
27 Jun 5.2 05:53:13 10° NE 05:57:23 25° E 06:01:33 10° SSE visible
30 Jun 5.6 05:42:15 10° NE 05:45:51 19° E 05:49:27 10° SE visible
03 Jul 5.7 05:31:33 10° ENE 05:34:18 15° E 05:37:03 10° SE visible
